EST,Max TemperatureF,Mean TemperatureF,Min TemperatureF,Max Dew PointF,MeanDew PointF,Min DewpointF,Max Humidity, Mean Humidity, Min Humidity, Max Sea Level PressureIn, Mean Sea Level PressureIn, Min Sea Level PressureIn, Max VisibilityMiles, Mean VisibilityMiles, Min VisibilityMiles, Max Wind SpeedMPH, Mean Wind SpeedMPH, Max Gust SpeedMPH,PrecipitationIn, CloudCover, Events, WindDirDegrees
2012-2-1,58,51,44,47,42,30,93,67,41,30.10,30.06,30.03,10,9,2,15,6,25,0.07,6,Rain,207
2012-2-2,46,41,35,45,35,27,100,75,49,30.41,30.14,29.99,10,7,0,13,5,20,0.00,7,Fog,333
2012-2-3,50,38,25,28,26,23,92,64,36,30.54,30.44,30.34,10,9,4,6,1,10,0.00,0,,4
2012-2-4,40,34,28,36,31,25,100,85,70,30.32,30.19,30.06,10,6,2,8,3,13,0.14,7,Rain,19
2012-2-5,46,37,27,34,31,24,100,73,45,30.27,30.13,30.03,10,5,2,9,3,13,0.04,6,Snow,12
2012-2-6,49,37,24,29,24,21,92,64,36,30.26,30.19,30.11,10,10,7,8,2,13,0.00,0,,216
2012-2-7,50,40,29,31,28,24,82,64,46,30.26,30.21,30.17,10,10,6,13,4,16,0.00,1,,309
2012-2-8,35,33,30,32,29,23,96,83,69,30.26,30.18,30.12,10,4,0,10,2,13,0.18,7,Fog-Snow,308
2012-2-9,38,31,24,25,21,18,81,63,44,30.34,30.27,30.20,10,10,10,10,4,17,0.00,3,,227
2012-2-10,36,33,30,30,26,20,100,78,56,30.22,30.02,29.89,10,6,2,10,4,15,0.05,8,Snow,201
2012-2-11,30,22,14,28,19,3,100,84,67,30.18,29.89,29.76,10,3,0,18,9,29,0.08,8,Fog-Snow,255
2012-2-12,22,18,13,13,10,4,88,75,62,30.26,30.18,30.12,10,6,2,14,6,22,T,7,Snow,238
2012-2-13,36,25,14,19,15,10,80,62,44,30.28,30.20,30.09,10,10,10,13,5,21,0.00,2,,205
2012-2-14,42,37,31,36,30,19,92,69,45,30.08,29.99,29.91,10,9,5,15,3,21,0.04,8,Rain-Snow,216
2012-2-15,45,40,35,33,30,27,92,73,53,30.32,30.22,30.10,10,10,9,9,3,15,0.00,6,,247
2012-2-16,49,44,38,46,43,31,100,79,58,30.18,30.03,29.95,10,8,2,12,5,16,0.13,8,Rain,211
2012-2-17,47,39,30,41,29,24,92,69,45,30.18,30.13,30.05,10,9,4,13,3,21,0.01,4,Rain,277
2012-2-18,52,39,25,27,24,20,92,64,36,30.15,30.07,29.96,10,10,9,17,7,24,0.00,1,,279
2012-2-19,41,34,26,23,21,19,81,63,45,30.14,30.05,29.94,10,10,10,16,8,21,0.00,0,,17
2012-2-20,42,33,23,20,19,16,81,60,38,30.38,30.27,30.11,10,10,10,9,2,13,0.00,1,,355
2012-2-21,53,38,23,38,23,11,75,50,25,30.25,29.96,29.81,10,10,10,20,7,35,T,4,,189
2012-2-22,58,49,39,42,33,27,82,57,32,29.85,29.65,29.47,10,10,7,17,6,25,0.07,4,Rain-Thunderstorm,206
2012-2-23,55,50,44,42,35,28,76,57,38,29.66,29.56,29.44,10,10,10,15,5,22,0.04,5,Rain,192
2012-2-24,61,48,34,54,41,20,86,57,28,29.78,29.52,29.39,10,9,2,28,10,45,0.11,7,Rain-Snow,229
2012-2-25,35,33,30,25,17,14,69,59,49,30.37,30.05,29.78,10,10,6,18,9,30,T,8,Snow,263
2012-2-26,45,33,21,17,14,12,77,52,27,30.50,30.40,30.30,10,10,10,9,3,13,0.00,0,,212
2012-2-27,63,46,28,28,22,18,69,47,24,30.46,30.29,30.17,10,10,10,18,8,30,0.00,2,,244
2012-2-28,52,39,25,24,20,15,81,53,24,30.52,30.40,30.18,10,10,7,12,2,16,0.00,1,,16
2012-2-29,63,50,37,56,48,24,93,70,46,30.15,29.82,29.62,10,7,2,14,7,24,1.05,7,Rain-Thunderstorm,194